Wind_Speed
14 24 20 17 13 6 7 8 5 1 5 8 10 10 9 13 14 14 16 13 14 16 17 16 14 11 9 5 5 3 1 3 5 7 5 6 7 8 4 1 4 6 9 10
13 17 18 16 11 7 12 8 5 7 7 7 5 7 6 16 18 17 19 16 11 13 14 13 14 10 8 7 6 5 3 4 5 7 7 7 9 7 8 3 4 4 9 10
10 13 13 13 7 9 8 6 5 7 8 6 4 8 4 9 13 14 11 14 16 10 11 9 12 11 6 5 7 6 5 3 7 7 8 9 5 7 8 7 5 6 4 10
14 15 15 13 9 9 5 4 5 5 5 3 4 6 2 4 9 12 12 12 17 13 8 9 10 10 8 6 6 5 7 7 6 7 9 9 9 8 8 9 8 8 8 7
14 13 11 13 14 8 4 5 11 10 10 4 2 2 2 3 7 7 9 13 14 10 6 7 10 10 11 8 7 6 5 5 4 6 7 8 8 9 10 9 10 12 10 11
10 11 11 15 12 10 8 9 10 9 7 5 5 9 8 10 2 6 11 13 17 11 2 1 3 4 7 8 9 8 6 4 4 5 7 7 8 9 9 11 11 11 12 13
17 16 15 12 14 13 14 13 13 10 17 13 13 12 10 11 8 5 13 14 14 13 13 9 9 9 10 7 9 10 8 7 6 5 6 7 8 10 10 11 12 13 12 12
8 13 14 15 15 18 16 16 14 11 22 13 14 13 13 15 12 9 8 11 10 10 12 9 10 16 9 7 15 14 13 7 5 4 5 8 7 7 11 12 13 14 14 14
12 13 12 14 16 17 22 19 17 12 15 16 15 13 11 16 14 14 14 13 11 12 13 16 26 13 14 7 18 16 12 10 10 9 6 10 12 11 11 12 14 15 16 16
11 10 11 12 17 20 19 22 20 17 16 19 20 16 16 14 16 22 18 16 18 18 22 24 24 18 13 16 16 27 18 11 14 13 11 12 11 11 12 15 14 15 16 18
9 13 16 14 18 19 19 18 19 19 21 22 24 23 20 17 20 22 24 24 21 19 22 24 26 20 18 23 21 29 25 34 24 23 17 16 11 11 14 15 19 17 17 18
14 15 17 16 21 20 21 22 21 22 20 22 26 27 28 28 28 30 31 30 30 31 26 27 25 24 30 28 31 30 28 15 20 29 24 21 11 15 16 18 17 22 21 20
2 8 18 24 24 25 26 24 23 24 26 28 29 29 28 28 31 33 36 36 29 30 32 36 36 34 31 30 30 33 28 30 28 29 34 13 26 27 25 23 19 20 23 24
14 19 21 24 32 32 33 30 30 30 30 30 29 30 31 30 31 28 28 33 35 35 38 40 35 34 34 36 36 38 37 35 32 38 35 26 27 25 23 29 25 24 26 23
24 24 17 20 24 27 29 35 40 39 38 36 33 34 34 36 36 35 36 36 35 38 40 38 39 41 43 45 45 44 44 44 43 42 41 39 34 31 32 32 33 34 33 28
22 26 21 20 23 23 26 29 34 38 40 38 38 38 39 39 39 39 40 43 46 44 42 45 46 47 47 48 49 47 47 45 48 48 48 45 44 41 39 43 47 49 42 34
19 18 21 24 26 26 27 28 30 33 36 39 39 38 39 39 39 39 41 41 41 42 44 47 49 51 50 50 51 53 52 54 55 55 55 53 52 52 48 47 49 49 49 38
22 19 20 23 26 29 29 31 30 30 31 33 34 33 34 34 34 36 38 40 43 46 49 51 51 53 54 53 51 53 58 60 59 60 57 58 57 58 58 57 56 54 51 50
26 25 25 24 25 29 29 29 30 29 30 32 31 31 32 33 35 38 41 45 47 50 52 54 55 55 56 58 59 59 58 57 58 60 59 58 55 55 59 60 59 60 60 60
28 28 28 27 26 28 25 28 29 30 32 30 31 33 34 37 40 43 46 49 52 54 56 57 58 59 61 61 62 62 62 62 54 53 53 52 52 48 48 55 58 60 61 64
30 29 28 26 28 30 27 25 27 32 31 32 32 34 37 40 43 47 49 51 53 56 59 61 62 60 60 60 61 62 60 56 53 48 45 43 44 43 43 48 52 57 60 63
30 30 29 28 28 31 28 27 27 29 30 32 34 38 41 42 43 46 50 54 58 60 61 62 62 58 55 54 53 52 51 50 45 42 40 37 38 37 36 39 46 51 56 60
31 30 29 30 31 30 29 27 26 27 31 36 38 39 40 43 46 49 52 52 55 56 51 49 50 48 46 46 47 47 44 43 42 38 37 37 39 37 37 38 37 45 51 55
30 29 29 29 28 30 30 30 32 34 36 37 38 40 42 46 48 48 44 45 42 41 39 38 39 39 39 40 41 41 38 41 42 39 37 38 39 39 37 39 39 40 41 48
26 26 27 29 29 29 30 32 35 35 36 39 41 44 44 47 47 41 41 38 38 38 39 41 41 41 39 40 40 40 40 43 41 40 41 41 41 41 40 40 42 41 37 36
23 26 28 29 30 31 33 35 35 36 40 43 46 46 47 48 45 40 40 39 41 43 46 48 46 45 42 41 41 42 44 46 47 46 47 47 47 46 43 40 41 45 43 39
Wind_Direction
177 167 177 187 183 205 194 177 133 119 116 142 125 125 113 70 71 81 53 46 41 55 54 49 41 29 11 359 353 323 318 329 273 268 269 275 266 264 219 261 318 242 222 225
186 192 200 205 208 217 192 173 176 201 153 184 151 139 104 86 84 87 49 54 43 32 34 41 43 36 27 15 340 344 2 301 299 277 274 273 284 244 229 227 278 235 227 230
212 221 226 227 224 200 171 162 186 201 177 179 175 157 103 87 94 65 36 48 49 33 29 33 45 28 26 12 10 348 324 296 279 270 268 264 249 246 249 244 243 255 232 229
215 224 235 247 212 208 172 198 224 182 199 175 165 164 42 58 71 44 23 27 31 36 26 21 37 30 30 35 15 7 358 321 257 279 256 257 250 250 244 254 237 247 239 232
225 234 244 210 197 170 160 167 187 185 187 177 126 147 330 282 42 11 350 13 20 22 33 17 24 16 18 19 30 32 13 1 258 254 255 249 260 258 260 260 252 250 246 240
171 193 192 184 167 172 177 184 177 164 181 186 221 250 265 262 284 360 347 350 344 347 226 271 59 63 10 14 14 11 15 22 356 266 260 240 245 261 261 259 261 260 252 250
166 166 153 162 156 176 186 196 158 160 165 195 234 252 273 291 314 334 347 346 346 1 330 336 360 342 331 11 12 2 354 356 9 340 293 256 256 258 266 268 258 263 264 256
159 145 150 159 162 171 198 200 189 171 184 217 250 273 285 280 296 276 341 343 347 6 354 344 14 325 289 360 352 346 337 320 326 337 297 266 238 237 249 254 259 257 260 266
136 157 154 179 172 180 200 212 219 210 230 248 254 265 274 280 273 279 298 309 344 337 324 313 281 294 266 305 331 316 318 299 297 283 251 264 255 228 224 237 245 249 251 249
189 189 202 195 201 202 202 217 228 227 235 255 261 251 269 278 281 283 288 303 319 311 314 305 309 314 250 272 291 311 260 262 276 290 264 277 268 260 256 246 237 245 244 246
204 222 222 222 209 213 204 217 227 235 228 241 255 262 265 259 271 281 289 299 306 312 308 297 286 308 296 310 300 312 317 304 265 267 287 261 275 274 273 267 261 241 247 245
252 257 234 228 225 227 226 228 232 237 241 247 251 257 262 268 278 286 294 302 300 300 305 303 297 299 306 305 308 307 303 317 275 309 306 268 255 269 268 270 265 260 251 247
279 262 239 237 244 246 250 253 253 255 254 254 259 264 267 271 278 284 289 294 297 304 304 303 297 296 296 294 291 294 286 282 286 293 295 300 299 281 261 260 266 269 260 253
290 297 253 241 246 258 263 267 268 270 268 268 272 276 276 275 277 283 286 288 290 298 306 303 297 296 296 296 295 298 296 294 285 282 294 293 288 264 268 259 260 261 263 256
279 288 274 249 241 245 255 257 261 266 267 268 272 277 280 283 285 286 286 288 289 295 294 291 290 291 292 293 295 295 294 293 291 290 289 287 285 267 268 271 266 254 250 254
264 277 269 264 255 253 253 253 250 256 262 265 268 272 274 275 277 281 285 287 288 286 285 289 288 287 288 289 290 288 286 283 284 283 283 283 281 273 260 263 270 255 241 240
265 257 253 257 266 268 262 257 256 258 259 262 266 270 274 276 277 278 278 277 277 277 278 279 280 282 285 285 285 285 286 286 284 282 281 280 277 275 269 265 264 263 270 247
272 266 253 256 264 264 265 266 265 265 266 267 270 272 272 272 271 272 274 275 275 276 276 278 280 281 282 280 279 281 285 285 284 282 279 278 276 273 271 267 263 262 259 257
271 275 276 272 269 271 270 270 271 271 271 273 276 276 276 276 276 278 279 280 280 281 281 282 283 284 285 285 285 283 281 280 281 280 279 277 274 270 269 267 262 260 258 257
274 276 277 282 280 273 267 273 280 280 276 281 277 276 277 278 281 283 283 283 285 287 289 288 286 285 285 284 283 282 281 280 276 273 273 273 273 269 265 263 262 259 255 254
273 274 276 275 271 271 269 267 269 272 277 273 273 275 276 276 278 283 287 290 291 287 284 284 284 286 285 284 283 282 279 277 274 271 268 270 272 269 262 259 259 258 255 252
273 274 275 275 274 271 273 271 270 269 271 274 274 274 277 284 289 290 290 290 290 290 287 284 282 281 279 279 279 278 277 274 269 265 263 264 268 270 268 262 258 260 259 255
270 275 276 277 280 280 283 283 279 273 270 272 280 286 288 292 294 293 296 297 301 301 295 285 280 278 278 278 278 278 276 273 270 265 259 261 262 265 269 269 268 261 260 257
270 274 275 276 279 281 283 283 281 282 285 289 290 293 295 295 296 298 298 304 308 308 306 299 293 289 287 286 283 281 276 272 270 265 259 259 260 258 258 264 269 269 264 257
272 272 274 275 277 278 277 277 279 286 291 290 294 295 295 298 299 292 299 304 306 306 306 304 301 297 294 289 286 282 279 274 272 268 264 262 263 262 259 254 258 264 267 260
269 271 272 278 280 280 283 289 294 294 292 295 296 297 298 297 294 288 294 299 300 301 302 301 298 297 295 290 286 283 278 273 270 269 267 267 268 268 265 260 255 255 259 259
Height
5900 5902 5904 5906 5908 5909 5911 5911 5910 5912 5914 5914 5912 5913 5914 5913 5912 5912 5911 5910 5910 5910 5909 5907 5905 5904 5902 5902 5901 5901 5900 5900 5900 5900 5900 5900 5901 5901 5899 5902 5903 5903 5903 5904
5902 5902 5903 5904 5907 5909 5908 5909 5909 5910 5911 5913 5913 5912 5912 5914 5912 5913 5912 5911 5910 5909 5908 5908 5906 5905 5904 5902 5901 5901 5901 5900 5901 5900 5899 5900 5900 5900 5900 5902 5901 5902 5903 5904
5901 5902 5903 5905 5906 5907 5907 5907 5908 5909 5909 5910 5911 5912 5912 5913 5913 5913 5913 5912 5910 5910 5909 5909 5908 5907 5905 5904 5902 5901 5900 5901 5902 5902 5901 5900 5900 5900 5900 5900 5901 5900 5901 5903
5900 5900 5902 5903 5906 5907 5906 5907 5908 5909 5911 5910 5911 5913 5913 5913 5911 5911 5912 5912 5910 5910 5909 5908 5908 5908 5907 5905 5903 5902 5901 5900 5902 5902 5902 5902 5901 5901 5900 5899 5900 5899 5899 5901
5899 5900 5901 5902 5904 5905 5906 5907 5908 5908 5909 5910 5911 5912 5912 5912 5909 5909 5910 5911 5910 5909 5909 5908 5908 5908 5908 5906 5904 5902 5900 5900 5900 5901 5902 5902 5902 5901 5901 5900 5899 5898 5898 5899
5896 5897 5899 5901 5902 5904 5904 5907 5907 5908 5908 5909 5909 5908 5908 5908 5906 5908 5909 5910 5910 5909 5907 5905 5905 5905 5905 5905 5904 5903 5900 5899 5899 5899 5900 5900 5900 5900 5899 5899 5900 5899 5897 5897
5894 5895 5897 5899 5900 5903 5904 5906 5907 5907 5907 5906 5905 5906 5905 5905 5905 5907 5910 5908 5910 5909 5909 5909 5908 5909 5907 5904 5901 5901 5901 5899 5898 5898 5898 5896 5895 5896 5897 5896 5897 5898 5898 5896
5895 5897 5897 5898 5900 5902 5902 5904 5905 5906 5906 5905 5904 5903 5903 5903 5904 5906 5907 5907 5908 5909 5909 5910 5910 5908 5905 5902 5900 5900 5899 5899 5895 5895 5894 5894 5891 5891 5892 5892 5893 5893 5895 5895
5896 5897 5897 5897 5897 5899 5900 5902 5904 5904 5903 5904 5903 5902 5900 5899 5901 5903 5903 5904 5906 5906 5908 5908 5905 5910 5904 5900 5897 5896 5894 5895 5893 5891 5890 5890 5889 5886 5887 5887 5887 5889 5890 5892
5894 5897 5898 5897 5896 5894 5896 5899 5900 5901 5902 5900 5899 5901 5899 5899 5898 5898 5900 5901 5903 5904 5904 5905 5902 5900 5900 5898 5893 5888 5887 5889 5890 5886 5882 5884 5887 5886 5885 5886 5883 5884 5885 5886
5893 5895 5896 5895 5894 5894 5896 5895 5897 5898 5897 5897 5897 5898 5898 5898 5898 5897 5897 5897 5898 5901 5900 5900 5897 5896 5896 5892 5891 5885 5880 5886 5889 5886 5847 5873 5881 5883 5883 5883 5884 5879 5879 5880
5891 5892 5893 5892 5891 5892 5892 5892 5893 5894 5895 5893 5893 5894 5895 5896 5895 5894 5892 5893 5895 5893 5893 5890 5888 5886 5887 5884 5884 5884 5884 5879 5883 5875 5877 5867 5872 5874 5876 5877 5878 5879 5876 5876
5889 5889 5889 5889 5889 5889 5889 5890 5891 5891 5891 5889 5889 5890 5892 5892 5891 5891 5890 5889 5887 5886 5885 5884 5880 5878 5877 5876 5875 5876 5875 5875 5873 5870 5874 5868 5870 5870 5869 5871 5870 5874 5873 5872
5884 5884 5884 5885 5884 5883 5884 5885 5885 5885 5885 5884 5885 5885 5886 5886 5887 5886 5884 5883 5881 5880 5877 5872 5870 5867 5866 5863 5860 5860 5862 5863 5866 5864 5862 5862 5865 5865 5864 5866 5864 5865 5866 5866
5879 5878 5877 5877 5877 5878 5879 5879 5878 5877 5878 5878 5880 5879 5879 5879 5879 5878 5876 5875 5873 5871 5867 5865 5861 5858 5854 5853 5852 5850 5848 5849 5850 5851 5853 5855 5857 5855 5853 5855 5858 5855 5854 5857
5872 5871 5871 5871 5870 5872 5872 5872 5872 5871 5871 5872 5872 5872 5872 5873 5872 5870 5868 5867 5864 5861 5859 5854 5850 5848 5846 5845 5842 5840 5839 5840 5837 5838 5840 5843 5843 5844 5846 5846 5841 5842 5838 5841
5864 5866 5866 5866 5865 5865 5865 5865 5865 5865 5865 5864 5865 5864 5863 5862 5862 5862 5860 5858 5856 5854 5851 5846 5842 5839 5838 5835 5832 5827 5826 5823 5824 5824 5824 5827 5829 5829 5832 5833 5830 5831 5808 5812
5857 5859 5860 5860 5860 5858 5858 5857 5858 5858 5858 5857 5856 5856 5855 5854 5853 5851 5849 5846 5843 5841 5838 5835 5832 5829 5825 5824 5823 5820 5813 5809 5807 5805 5807 5807 5810 5812 5812 5815 5816 5815 5816 5814
5851 5851 5852 5853 5853 5850 5850 5850 5849 5849 5849 5848 5847 5846 5845 5843 5841 5839 5836 5833 5829 5826 5823 5819 5816 5813 5809 5805 5802 5802 5802 5797 5794 5789 5787 5789 5791 5793 5791 5792 5795 5798 5801 5802
5845 5845 5845 5844 5844 5842 5843 5841 5839 5838 5838 5839 5838 5836 5833 5831 5829 5827 5824 5820 5816 5812 5807 5802 5798 5795 5793 5789 5785 5783 5781 5779 5780 5777 5774 5773 5774 5777 5778 5776 5777 5780 5784 5786
5837 5837 5837 5837 5836 5834 5836 5836 5833 5831 5833 5828 5827 5826 5824 5821 5819 5816 5812 5809 5805 5799 5792 5787 5782 5779 5774 5770 5767 5764 5761 5762 5760 5762 5762 5760 5758 5760 5763 5763 5762 5763 5766 5768
5829 5829 5828 5828 5827 5826 5826 5826 5826 5824 5821 5819 5816 5814 5812 5810 5807 5803 5798 5793 5787 5782 5776 5769 5765 5763 5759 5754 5750 5748 5746 5744 5745 5746 5747 5750 5748 5747 5748 5749 5750 5749 5750 5752
5820 5821 5820 5820 5818 5816 5815 5815 5814 5812 5810 5808 5806 5803 5801 5798 5794 5788 5783 5776 5770 5762 5755 5749 5746 5745 5744 5741 5737 5734 5733 5731 5731 5733 5736 5737 5738 5738 5737 5737 5737 5737 5737 5739
5812 5813 5811 5811 5811 5808 5806 5804 5803 5801 5799 5797 5794 5792 5787 5782 5777 5772 5767 5762 5756 5749 5743 5737 5733 5731 5730 5727 5724 5721 5722 5720 5719 5720 5721 5724 5725 5727 5728 5727 5725 5725 5725 5726
5806 5804 5803 5801 5801 5800 5798 5796 5794 5792 5789 5786 5782 5778 5774 5769 5765 5760 5756 5751 5745 5740 5735 5729 5725 5722 5720 5716 5712 5711 5710 5707 5706 5707 5708 5710 5711 5712 5714 5716 5715 5713 5713 5714
5798 5796 5795 5794 5793 5791 5789 5787 5784 5781 5777 5773 5768 5765 5760 5755 5750 5747 5745 5741 5734 5730 5724 5719 5714 5708 5706 5703 5701 5700 5697 5694 5693 5693 5694 5694 5695 5696 5699 5701 5703 5702 5701 5702